Overview Statistics Trail Chart Weather Telemetry Raw packets
 

This is the latest recevied weather packets stored in our database for station/object K3RUP-1. If no packets are shown the sender has not sent any weather packets the latest 10 day(s).

<< 6 7 8 9 10 11 12 >>
Time Temp. Humidity Pressure Rain* Wind** Luminosity Snow
1788650324 25° C 82% 1010.2 hPa 0 mm - 4 W/m² -
1788650019 25° C 80% 1010.3 hPa 0 mm - 6 W/m² -
1788649716 25° C 80% 1010.3 hPa 0 mm - 8 W/m² -
1788649413 25° C 81% 1010.4 hPa 0 mm - 7 W/m² -
1788649113 25° C 80% 1010.4 hPa 0 mm - 9 W/m² -
1788648807 25° C 80% 1010.4 hPa 0 mm - 16 W/m² -
1788648502 25.56° C 80% 1010.4 hPa 0 mm - 16 W/m² -
1788648198 25.56° C 79% 1010.3 hPa 0 mm - 19 W/m² -
1788647892 25° C 77% 1010.2 hPa 0 mm - 17 W/m² -
1788647590 25.56° C 79% 1010.1 hPa 0 mm - 29 W/m² -
1788647285 25.56° C 77% 1010.1 hPa 0 mm - 34 W/m² -
1788646983 25.56° C 77% 1010.1 hPa 0 mm - 32 W/m² -
1788645997 25.56° C 78% 1009.9 hPa 0 mm - 42 W/m² -
1788645693 25.56° C 78% 1009.9 hPa 0 mm - 42 W/m² -
1788645392 25.56° C 78% 1009.9 hPa 0 mm - 42 W/m² -
1788645088 26.11° C 74% 1009.8 hPa 0 mm - 42 W/m² -
1788644784 26.11° C 74% 1009.9 hPa 0 mm - 35 W/m² -
1788644483 26.11° C 71% 1009.8 hPa 0 mm - 35 W/m² -
1788644179 26.11° C 71% 1009.8 hPa 0 mm - 47 W/m² -
1788643874 26.67° C 70% 1009.6 hPa 0 mm - 58 W/m² -
1788643569 26.67° C 68% 1009.6 hPa 0 mm - 161 W/m² -
1788643269 26.67° C 69% 1009.5 hPa 0 mm - 67 W/m² -
1788642964 26.67° C 67% 1009.3 hPa 0 mm - 42 W/m² -
1788642659 26.67° C 67% 1009.4 hPa 0 mm - 46 W/m² -
1788642355 26.67° C 69% 1009.4 hPa 0 mm - 109 W/m² -

* Rain latest hour (hover to see other rain measurements)
** Current wind speed in m/s (hover to see current wind gust speed)